START_TIME,STEP,MOV.,M34,t_acc.,L5,t_acc.,L18,t_acc.,L14,t_acc.
1979-07-24 00:00:24.220 ,0,0,0.,12.0,0.,12.0,0.,12.0,0.,12.0
1979-07-24 00:00:36.220 ,0,0,0.,12.0,0.,12.0,0.,12.0,0.,12.0
1979-07-24 00:00:48.220 ,1,1,0.,12.0,0.,12.0,0.,12.0,0.,12.0
1979-07-24 00:01:00.220 ,1,1,0.,12.0,0.,12.0,0.,12.0,0.,12.0
1979-07-24 00:01:12.220 ,1,0,1.,12.0,0.,12.0,0.,12.0,0.,12.0
1979-07-24 00:01:24.220 ,1,0,0.,12.0,0.,12.0,0.,12.0,0.,12.0
1979-07-24 00:01:36.220 ,2,1,0.,12.0,0.,12.0,0.,12.0,0.,12.0
1979-07-24 00:01:48.220 ,2,1,0.,12.0,0.,12.0,0.,12.0,0.,12.0
1979-07-24 00:02:00.220 ,2,0,0.,12.0,0.,12.0,0.,12.0,0.,12.0
1979-07-24 00:02:12.220 ,2,0,1.,12.0,0.,12.0,0.,12.0,0.,12.0
1979-07-24 00:02:24.220 ,3,1,0.,12.0,0.,12.0,0.,12.0,0.,12.0
1979-07-24 00:02:36.220 ,3,1,0.,12.0,0.,12.0,0.,12.0,0.,12.0
1979-07-24 00:02:48.220 ,3,0,0.,12.0,0.,12.0,0.,12.0,0.,12.0
1979-07-24 00:03:00.220 ,3,0,0.,12.0,0.,12.0,0.,12.0,0.,12.0
1979-07-24 00:03:12.220 ,4,1,1.,12.0,0.,12.0,0.,12.0,0.,12.0
1979-07-24 00:03:24.220 ,4,1,0.,12.0,0.,12.0,0.,12.0,0.,12.0
1979-07-24 00:03:36.220 ,4,0,0.,12.0,0.,12.0,0.,12.0,1.,12.0
1979-07-24 00:03:48.220 ,4,0,0.,12.0,0.,12.0,0.,12.0,0.,12.0
1979-07-24 00:04:00.220 ,5,1,0.,12.0,0.,12.0,0.,12.0,0.,12.0
1979-07-24 00:04:12.220 ,5,1,0.,12.0,0.,12.0,0.,12.0,0.,12.0
1979-07-24 00:04:24.220 ,5,0,0.,12.0,0.,12.0,0.,12.0,0.,12.0
1979-07-24 00:04:36.220 ,5,0,0.,12.0,0.,12.0,0.,12.0,0.,12.0
1979-07-24 00:04:48.220 ,6,1,0.,12.0,0.,12.0,0.,12.0,0.,12.0
1979-07-24 00:05:00.220 ,6,1,0.,12.0,0.,12.0,0.,12.0,0.,12.0
1979-07-24 00:05:12.220 ,6,0,0.,12.0,0.,12.0,0.,12.0,0.,12.0
1979-07-24 00:05:24.220 ,6,0,0.,12.0,0.,12.0,0.,12.0,0.,12.0
1979-07-24 00:05:36.220 ,7,1,0.,12.0,0.,12.0,0.,12.0,0.,12.0
1979-07-24 00:05:48.220 ,7,1,1.,12.0,0.,12.0,0.,12.0,0.,12.0
1979-07-24 00:06:00.220 ,7,0,0.,12.0,0.,12.0,0.,12.0,0.,12.0
1979-07-24 00:06:12.220 ,7,0,0.,12.0,0.,12.0,0.,12.0,0.,12.0
1979-07-24 00:06:24.220 ,7,1,0.,12.0,0.,12.0,0.,12.0,0.,12.0
1979-07-24 00:06:36.220 ,7,1,0.,12.0,0.,12.0,0.,12.0,0.,12.0
1979-07-24 00:06:48.220 ,7,0,0.,12.0,0.,12.0,0.,12.0,0.,12.0
1979-07-24 00:07:00.220 ,7,0,0.,12.0,0.,12.0,0.,12.0,0.,12.0
1979-07-24 00:07:12.220 ,6,1,0.,12.0,0.,12.0,0.,12.0,0.,12.0
1979-07-24 00:07:24.220 ,6,1,0.,12.0,0.,12.0,0.,12.0,0.,12.0
1979-07-24 00:07:36.220 ,6,0,0.,12.0,0.,12.0,0.,12.0,0.,12.0
1979-07-24 00:07:48.220 ,6,0,0.,12.0,0.,12.0,0.,12.0,0.,12.0
1979-07-24 00:08:00.220 ,5,1,0.,12.0,0.,12.0,0.,12.0,0.,12.0
1979-07-24 00:08:12.220 ,5,1,0.,12.0,0.,12.0,0.,12.0,0.,12.0
1979-07-24 00:08:24.220 ,5,0,0.,12.0,0.,12.0,0.,12.0,0.,12.0
1979-07-24 00:08:36.220 ,5,0,0.,12.0,0.,12.0,0.,12.0,0.,12.0
1979-07-24 00:08:48.220 ,4,1,0.,12.0,0.,12.0,0.,12.0,0.,12.0
1979-07-24 00:09:00.220 ,4,1,0.,12.0,0.,12.0,0.,12.0,0.,12.0
1979-07-24 00:09:12.220 ,4,0,0.,12.0,0.,12.0,0.,12.0,0.,12.0
1979-07-24 00:09:24.220 ,4,0,0.,12.0,0.,12.0,0.,12.0,0.,12.0
1979-07-24 00:09:36.220 ,3,1,0.,12.0,0.,12.0,0.,12.0,0.,12.0
1979-07-24 00:09:48.220 ,3,1,0.,12.0,0.,12.0,0.,12.0,0.,12.0
1979-07-24 00:10:00.220 ,3,0,0.,12.0,0.,12.0,0.,12.0,0.,12.0
1979-07-24 00:10:12.220 ,3,0,0.,12.0,0.,12.0,0.,12.0,0.,12.0
1979-07-24 00:10:24.220 ,2,1,0.,12.0,0.,12.0,0.,12.0,0.,12.0
1979-07-24 00:10:36.220 ,2,1,0.,12.0,0.,12.0,0.,12.0,0.,12.0
1979-07-24 00:10:48.220 ,2,0,0.,12.0,0.,12.0,0.,12.0,0.,12.0
1979-07-24 00:11:00.220 ,2,0,0.,12.0,0.,12.0,0.,12.0,0.,12.0
1979-07-24 00:11:12.220 ,1,1,0.,12.0,0.,12.0,0.,12.0,0.,12.0
1979-07-24 00:11:24.220 ,1,1,0.,12.0,0.,12.0,0.,12.0,0.,12.0
1979-07-24 00:11:36.220 ,1,0,0.,12.0,0.,12.0,0.,12.0,0.,12.0
1979-07-24 00:11:48.220 ,1,0,0.,12.0,0.,12.0,0.,12.0,0.,12.0
1979-07-24 00:12:00.220 ,0,1,0.,12.0,0.,12.0,0.,12.0,0.,12.0
1979-07-24 00:12:12.220 ,0,1,0.,12.0,0.,12.0,0.,12.0,0.,12.0
1979-07-24 00:12:24.220 ,0,0,0.,12.0,0.,12.0,0.,12.0,0.,12.0
1979-07-24 00:12:36.220 ,0,0,0.,12.0,0.,12.0,0.,12.0,0.,12.0
1979-07-24 00:12:48.220 ,0,1,0.,12.0,0.,12.0,0.,12.0,0.,12.0
1979-07-24 00:13:00.220 ,0,1,0.,12.0,0.,12.0,0.,12.0,0.,12.0
1979-07-24 00:13:12.220 ,0,0,0.,12.0,0.,12.0,0.,12.0,0.,12.0
1979-07-24 00:13:24.220 ,0,0,0.,12.0,0.,12.0,0.,12.0,0.,12.0
1979-07-24 00:13:36.220 ,1,1,0.,12.0,0.,12.0,0.,12.0,0.,12.0
1979-07-24 00:13:48.220 ,1,1,0.,12.0,0.,12.0,0.,12.0,0.,12.0
1979-07-24 00:14:00.220 ,1,0,0.,12.0,0.,12.0,0.,12.0,0.,12.0
1979-07-24 00:14:12.220 ,1,0,0.,12.0,0.,12.0,0.,12.0,0.,12.0
1979-07-24 00:14:24.220 ,2,1,1.,12.0,0.,12.0,0.,12.0,0.,12.0
1979-07-24 00:14:36.220 ,2,1,0.,12.0,0.,12.0,0.,12.0,0.,12.0
1979-07-24 00:14:48.220 ,2,0,1.,12.0,0.,12.0,0.,12.0,0.,12.0
1979-07-24 00:15:00.220 ,2,0,0.,12.0,0.,12.0,0.,12.0,0.,12.0
1979-07-24 00:15:12.220 ,3,1,0.,12.0,0.,12.0,0.,12.0,0.,12.0
1979-07-24 00:15:24.220 ,3,1,0.,12.0,0.,12.0,0.,12.0,0.,12.0
1979-07-24 00:15:36.220 ,3,0,0.,12.0,0.,12.0,0.,12.0,0.,12.0
1979-07-24 00:15:48.220 ,3,0,0.,12.0,0.,12.0,0.,12.0,0.,12.0
1979-07-24 00:16:00.220 ,4,1,0.,12.0,0.,12.0,0.,12.0,0.,12.0
1979-07-24 00:16:12.220 ,4,1,0.,12.0,0.,12.0,0.,12.0,0.,12.0
1979-07-24 00:16:24.220 ,4,0,0.,12.0,0.,12.0,0.,12.0,0.,12.0
1979-07-24 00:16:36.220 ,4,0,0.,12.0,0.,12.0,0.,12.0,0.,12.0
1979-07-24 00:16:48.220 ,5,1,0.,12.0,0.,12.0,0.,12.0,0.,12.0
1979-07-24 00:17:00.220 ,5,1,0.,12.0,0.,12.0,0.,12.0,0.,12.0
1979-07-24 00:17:12.220 ,5,0,0.,12.0,0.,12.0,0.,12.0,0.,12.0
1979-07-24 00:17:24.220 ,5,0,0.,12.0,0.,12.0,0.,12.0,0.,12.0
1979-07-24 00:17:36.220 ,6,1,0.,12.0,0.,12.0,0.,12.0,0.,12.0
1979-07-24 00:17:48.220 ,6,1,0.,12.0,0.,12.0,0.,12.0,0.,12.0
1979-07-24 00:18:00.220 ,6,0,0.,12.0,0.,12.0,0.,12.0,0.,12.0
1979-07-24 00:18:12.220 ,6,0,0.,12.0,0.,12.0,0.,12.0,0.,12.0
1979-07-24 00:18:24.220 ,7,0,0.,12.0,0.,12.0,0.,12.0,0.,12.0
1979-07-24 00:18:36.220 ,7,0,0.,12.0,0.,12.0,0.,12.0,0.,12.0
1979-07-24 00:18:48.220 ,7,0,0.,12.0,0.,12.0,0.,12.0,0.,12.0
1979-07-24 00:19:00.220 ,7,0,0.,12.0,0.,12.0,0.,12.0,0.,12.0
1979-07-24 00:19:12.220 ,4,1,0.,12.0,0.,12.0,0.,12.0,0.,12.0
1979-07-24 00:19:24.220 ,4,1,0.,12.0,0.,12.0,0.,12.0,0.,12.0
1979-07-24 00:19:36.220 ,0,1,0.,12.0,0.,12.0,0.,12.0,0.,12.0
1979-07-24 00:19:48.220 ,0,1,1.,12.0,0.,12.0,0.,12.0,0.,12.0
1979-07-24 00:20:00.220 ,3,1,1.,12.0,0.,12.0,0.,12.0,0.,12.0
1979-07-24 00:20:12.220 ,3,1,1.,12.0,0.,12.0,0.,12.0,0.,12.0
1979-07-24 00:20:24.220 ,7,1,0.,12.0,0.,12.0,0.,12.0,0.,12.0
1979-07-24 00:20:36.220 ,7,1,0.,12.0,0.,12.0,0.,12.0,0.,12.0
1979-07-24 00:20:48.220 ,4,1,0.,12.0,0.,12.0,0.,12.0,0.,12.0
1979-07-24 00:21:00.220 ,4,1,0.,12.0,0.,12.0,0.,12.0,0.,12.0
1979-07-24 00:21:12.220 ,0,1,0.,12.0,0.,12.0,0.,12.0,0.,12.0
1979-07-24 00:21:24.220 ,0,1,0.,12.0,0.,12.0,0.,12.0,0.,12.0
1979-07-24 00:21:36.220 ,3,1,0.,12.0,0.,12.0,0.,12.0,0.,12.0
1979-07-24 00:21:48.220 ,3,1,0.,12.0,0.,12.0,0.,12.0,0.,12.0
1979-07-24 00:22:00.220 ,7,1,0.,12.0,0.,12.0,0.,12.0,0.,12.0
1979-07-24 00:22:12.220 ,7,1,0.,12.0,0.,12.0,0.,12.0,0.,12.0
1979-07-24 00:22:24.220 ,4,1,0.,12.0,0.,12.0,0.,12.0,0.,12.0
1979-07-24 00:22:36.220 ,4,1,0.,12.0,0.,12.0,0.,12.0,0.,12.0
1979-07-24 00:22:48.220 ,0,1,0.,12.0,0.,12.0,0.,12.0,0.,12.0
1979-07-24 00:23:00.220 ,0,1,0.,12.0,0.,12.0,0.,12.0,0.,12.0
1979-07-24 00:23:12.220 ,3,1,0.,12.0,0.,12.0,0.,12.0,0.,12.0
1979-07-24 00:23:24.220 ,3,1,0.,12.0,0.,12.0,0.,12.0,0.,12.0
1979-07-24 00:23:36.220 ,7,1,0.,12.0,0.,12.0,0.,12.0,0.,12.0
1979-07-24 00:23:48.220 ,7,1,0.,12.0,0.,12.0,0.,12.0,0.,12.0
1979-07-24 00:24:00.220 ,4,1,0.,12.0,0.,12.0,0.,12.0,0.,12.0
1979-07-24 00:24:12.220 ,4,1,0.,12.0,0.,12.0,0.,12.0,0.,12.0
1979-07-24 00:24:24.220 ,0,1,1.,12.0,0.,12.0,0.,12.0,0.,12.0
1979-07-24 00:24:36.220 ,0,1,0.,12.0,0.,12.0,0.,12.0,0.,12.0
1979-07-24 00:24:48.220 ,3,1,0.,12.0,0.,12.0,0.,12.0,0.,12.0
1979-07-24 00:25:00.220 ,3,1,0.,12.0,0.,12.0,0.,12.0,0.,12.0
1979-07-24 00:25:12.220 ,7,1,0.,12.0,0.,12.0,0.,12.0,0.,12.0
1979-07-24 00:25:24.220 ,7,1,0.,12.0,0.,12.0,0.,12.0,0.,12.0
1979-07-24 00:25:36.220 ,4,1,0.,12.0,0.,12.0,0.,12.0,0.,12.0
1979-07-24 00:25:48.220 ,4,1,0.,12.0,0.,12.0,0.,12.0,1.,12.0
1979-07-24 00:26:00.220 ,0,1,0.,12.0,0.,12.0,0.,12.0,0.,12.0
1979-07-24 00:26:12.220 ,0,1,0.,12.0,0.,12.0,0.,12.0,0.,12.0
1979-07-24 00:26:24.220 ,3,1,1.,12.0,0.,12.0,0.,12.0,0.,12.0
1979-07-24 00:26:36.220 ,3,1,0.,12.0,0.,12.0,0.,12.0,0.,12.0
1979-07-24 00:26:48.220 ,7,1,0.,12.0,0.,12.0,0.,12.0,0.,12.0
1979-07-24 00:27:00.220 ,7,1,0.,12.0,0.,12.0,0.,12.0,0.,12.0
1979-07-24 00:27:12.220 ,4,1,0.,12.0,0.,12.0,0.,12.0,0.,12.0
1979-07-24 00:27:24.220 ,4,1,0.,12.0,0.,12.0,0.,12.0,0.,12.0
1979-07-24 00:27:36.220 ,0,1,0.,12.0,0.,12.0,0.,12.0,0.,12.0
1979-07-24 00:27:48.220 ,0,1,0.,12.0,0.,12.0,0.,12.0,0.,12.0
1979-07-24 00:28:00.220 ,3,1,1.,12.0,0.,12.0,0.,12.0,0.,12.0
1979-07-24 00:28:12.220 ,3,1,0.,12.0,0.,12.0,0.,12.0,0.,12.0
1979-07-24 00:28:24.220 ,7,1,0.,12.0,0.,12.0,0.,12.0,0.,12.0
1979-07-24 00:28:36.220 ,7,1,0.,12.0,0.,12.0,0.,12.0,0.,12.0
1979-07-24 00:28:48.220 ,4,1,0.,12.0,0.,12.0,0.,12.0,0.,12.0
1979-07-24 00:29:00.220 ,4,1,0.,12.0,0.,12.0,0.,12.0,0.,12.0
1979-07-24 00:29:12.220 ,0,1,0.,12.0,0.,12.0,0.,12.0,0.,12.0
1979-07-24 00:29:24.220 ,0,1,0.,12.0,0.,12.0,0.,12.0,0.,12.0
1979-07-24 00:29:36.220 ,0,0,0.,12.0,0.,12.0,0.,12.0,0.,12.0
1979-07-24 00:29:48.220 ,0,0,0.,12.0,0.,12.0,0.,12.0,0.,12.0
1979-07-24 00:30:00.220 ,0,0,0.,12.0,0.,12.0,0.,12.0,0.,12.0
1979-07-24 00:30:12.220 ,0,0,0.,12.0,0.,12.0,0.,12.0,0.,12.0
1979-07-24 00:30:24.220 ,5,1,0.,12.0,0.,12.0,0.,12.0,0.,12.0
1979-07-24 00:30:36.220 ,5,1,0.,12.0,0.,12.0,0.,12.0,0.,12.0
1979-07-24 00:30:48.220 ,5,0,1.,12.0,0.,12.0,0.,12.0,0.,12.0
1979-07-24 00:31:00.220 ,5,0,0.,12.0,0.,12.0,0.,12.0,0.,12.0
1979-07-24 00:31:12.220 ,4,1,0.,12.0,0.,12.0,0.,12.0,0.,12.0
1979-07-24 00:31:24.220 ,4,1,0.,12.0,0.,12.0,0.,12.0,0.,12.0
1979-07-24 00:31:36.220 ,4,0,0.,12.0,0.,12.0,0.,12.0,0.,12.0
1979-07-24 00:31:48.220 ,4,0,0.,12.0,0.,12.0,0.,12.0,0.,12.0
1979-07-24 00:32:00.220 ,3,1,0.,12.0,0.,12.0,0.,12.0,0.,12.0
1979-07-24 00:32:12.220 ,3,1,0.,12.0,0.,12.0,0.,12.0,0.,12.0
1979-07-24 00:32:24.220 ,3,0,0.,12.0,0.,12.0,0.,12.0,0.,12.0
1979-07-24 00:32:36.220 ,3,0,0.,12.0,0.,12.0,0.,12.0,0.,12.0
1979-07-24 00:32:48.220 ,2,1,0.,12.0,0.,12.0,0.,12.0,0.,12.0
1979-07-24 00:33:00.220 ,2,1,0.,12.0,0.,12.0,0.,12.0,0.,12.0
1979-07-24 00:33:12.220 ,2,0,0.,12.0,0.,12.0,0.,12.0,0.,12.0
1979-07-24 00:33:24.220 ,2,0,0.,12.0,0.,12.0,0.,12.0,0.,12.0
1979-07-24 00:33:36.220 ,1,1,0.,12.0,0.,12.0,0.,12.0,0.,12.0
1979-07-24 00:33:48.220 ,1,1,0.,12.0,0.,12.0,0.,12.0,0.,12.0
1979-07-24 00:34:00.220 ,1,0,0.,12.0,0.,12.0,0.,12.0,0.,12.0
1979-07-24 00:34:12.220 ,1,0,0.,12.0,0.,12.0,0.,12.0,1.,12.0
1979-07-24 00:34:24.210 ,0,1,1.,12.0,0.,12.0,0.,12.0,0.,12.0
1979-07-24 00:34:36.210 ,0,1,0.,12.0,0.,12.0,0.,12.0,0.,12.0
1979-07-24 00:34:48.210 ,0,0,0.,12.0,0.,12.0,0.,12.0,0.,12.0
1979-07-24 00:35:00.210 ,0,0,1.,12.0,0.,12.0,0.,12.0,0.,12.0
1979-07-24 00:35:12.210 ,0,1,0.,12.0,0.,12.0,0.,12.0,0.,12.0
1979-07-24 00:35:24.210 ,0,1,0.,12.0,0.,12.0,0.,12.0,0.,12.0
1979-07-24 00:35:36.210 ,0,0,0.,12.0,0.,12.0,0.,12.0,0.,12.0
1979-07-24 00:35:48.210 ,0,0,0.,12.0,0.,12.0,0.,12.0,0.,12.0
1979-07-24 00:36:00.210 ,1,1,0.,12.0,0.,12.0,0.,12.0,0.,12.0
1979-07-24 00:36:12.210 ,1,1,0.,12.0,0.,12.0,0.,12.0,0.,12.0
1979-07-24 00:36:24.210 ,1,0,0.,12.0,0.,12.0,0.,12.0,0.,12.0
1979-07-24 00:36:36.210 ,1,0,0.,12.0,0.,12.0,0.,12.0,0.,12.0
1979-07-24 00:36:48.210 ,2,1,1.,12.0,0.,12.0,0.,12.0,0.,12.0
1979-07-24 00:37:00.210 ,2,1,0.,12.0,0.,12.0,0.,12.0,0.,12.0
1979-07-24 00:37:12.210 ,2,0,0.,12.0,0.,12.0,0.,12.0,0.,12.0
1979-07-24 00:37:24.210 ,2,0,0.,12.0,0.,12.0,0.,12.0,0.,12.0
1979-07-24 00:37:36.210 ,3,1,0.,12.0,0.,12.0,0.,12.0,0.,12.0
1979-07-24 00:37:48.210 ,3,1,0.,12.0,0.,12.0,0.,12.0,0.,12.0
1979-07-24 00:38:00.210 ,3,0,0.,12.0,0.,12.0,0.,12.0,0.,12.0
1979-07-24 00:38:12.210 ,3,0,0.,12.0,0.,12.0,0.,12.0,0.,12.0
1979-07-24 00:38:24.210 ,4,1,0.,12.0,0.,12.0,0.,12.0,0.,12.0
1979-07-24 00:38:36.210 ,4,1,0.,12.0,0.,12.0,0.,12.0,0.,12.0
1979-07-24 00:38:48.210 ,4,0,0.,12.0,0.,12.0,0.,12.0,0.,12.0
1979-07-24 00:39:00.210 ,4,0,0.,12.0,0.,12.0,0.,12.0,0.,12.0
1979-07-24 00:39:12.210 ,5,1,0.,12.0,0.,12.0,0.,12.0,0.,12.0
1979-07-24 00:39:24.210 ,5,1,0.,12.0,0.,12.0,0.,12.0,0.,12.0
1979-07-24 00:39:36.210 ,5,0,0.,12.0,0.,12.0,0.,12.0,0.,12.0
1979-07-24 00:39:48.210 ,5,0,0.,12.0,0.,12.0,0.,12.0,0.,12.0
1979-07-24 00:40:00.210 ,6,1,0.,12.0,0.,12.0,0.,12.0,0.,12.0
1979-07-24 00:40:12.210 ,6,1,0.,12.0,0.,12.0,0.,12.0,0.,12.0
1979-07-24 00:40:24.210 ,6,0,0.,12.0,0.,12.0,0.,12.0,0.,12.0
1979-07-24 00:40:36.210 ,6,0,1.,12.0,0.,12.0,0.,12.0,0.,12.0
1979-07-24 00:40:48.210 ,7,1,0.,12.0,0.,12.0,0.,12.0,0.,12.0
1979-07-24 00:41:00.210 ,7,1,0.,12.0,0.,12.0,0.,12.0,0.,12.0
1979-07-24 00:41:12.210 ,7,0,0.,12.0,0.,12.0,0.,12.0,0.,12.0
1979-07-24 00:41:24.210 ,7,0,0.,12.0,0.,12.0,0.,12.0,0.,12.0
1979-07-24 00:41:36.210 ,7,1,0.,12.0,0.,12.0,0.,12.0,0.,12.0
1979-07-24 00:41:48.210 ,7,1,0.,12.0,0.,12.0,0.,12.0,0.,12.0
1979-07-24 00:42:00.210 ,7,0,0.,12.0,0.,12.0,0.,12.0,0.,12.0
1979-07-24 00:42:12.210 ,7,0,0.,12.0,0.,12.0,0.,12.0,0.,12.0
1979-07-24 00:42:24.210 ,6,1,0.,12.0,0.,12.0,0.,12.0,0.,12.0
1979-07-24 00:42:36.210 ,6,1,0.,12.0,0.,12.0,0.,12.0,0.,12.0
1979-07-24 00:42:48.210 ,6,0,0.,12.0,0.,12.0,0.,12.0,0.,12.0
1979-07-24 00:43:00.210 ,6,0,0.,12.0,0.,12.0,0.,12.0,0.,12.0
1979-07-24 00:43:12.210 ,5,1,0.,12.0,0.,12.0,0.,12.0,0.,12.0
1979-07-24 00:43:24.210 ,5,1,0.,12.0,0.,12.0,0.,12.0,0.,12.0
1979-07-24 00:43:36.210 ,5,0,1.,12.0,0.,12.0,0.,12.0,0.,12.0
1979-07-24 00:43:48.210 ,5,0,0.,12.0,0.,12.0,0.,12.0,0.,12.0
1979-07-24 00:44:00.210 ,4,1,0.,12.0,0.,12.0,0.,12.0,0.,12.0
1979-07-24 00:44:12.210 ,4,1,1.,12.0,0.,12.0,0.,12.0,0.,12.0
1979-07-24 00:44:24.210 ,4,0,0.,12.0,0.,12.0,0.,12.0,0.,12.0
1979-07-24 00:44:36.210 ,4,0,0.,12.0,0.,12.0,0.,12.0,0.,12.0
1979-07-24 00:44:48.210 ,3,1,1.,12.0,0.,12.0,0.,12.0,0.,12.0
1979-07-24 00:45:00.210 ,3,1,0.,12.0,0.,12.0,0.,12.0,0.,12.0
1979-07-24 00:45:12.210 ,3,0,0.,12.0,0.,12.0,0.,12.0,0.,12.0
1979-07-24 00:45:24.210 ,3,0,0.,12.0,0.,12.0,0.,12.0,0.,12.0
1979-07-24 00:45:36.210 ,2,1,0.,12.0,0.,12.0,0.,12.0,0.,12.0
1979-07-24 00:45:48.210 ,2,1,1.,12.0,0.,12.0,0.,12.0,0.,12.0
1979-07-24 00:46:00.210 ,2,0,0.,12.0,0.,12.0,0.,12.0,0.,12.0
1979-07-24 00:46:12.210 ,2,0,1.,12.0,0.,12.0,0.,12.0,0.,12.0
1979-07-24 00:46:24.210 ,1,1,0.,12.0,0.,12.0,0.,12.0,0.,12.0
1979-07-24 00:46:36.210 ,1,1,0.,12.0,0.,12.0,0.,12.0,0.,12.0
1979-07-24 00:46:48.210 ,1,0,1.,12.0,0.,12.0,0.,12.0,0.,12.0
1979-07-24 00:47:00.210 ,1,0,0.,12.0,0.,12.0,0.,12.0,0.,12.0
1979-07-24 00:47:12.210 ,0,1,0.,12.0,0.,12.0,0.,12.0,0.,12.0
1979-07-24 00:47:24.210 ,0,1,0.,12.0,0.,12.0,0.,12.0,0.,12.0
1979-07-24 00:47:36.210 ,0,0,1.,12.0,0.,12.0,0.,12.0,0.,12.0
1979-07-24 00:47:48.210 ,0,0,0.,12.0,0.,12.0,0.,12.0,0.,12.0
1979-07-24 00:48:00.210 ,0,1,0.,12.0,0.,12.0,0.,12.0,0.,12.0
1979-07-24 00:48:12.210 ,0,1,0.,12.0,0.,12.0,0.,12.0,0.,12.0
1979-07-24 00:48:24.210 ,0,0,0.,12.0,0.,12.0,0.,12.0,0.,12.0
1979-07-24 00:48:36.210 ,0,0,0.,12.0,0.,12.0,0.,12.0,0.,12.0
1979-07-24 00:48:48.210 ,1,1,0.,12.0,0.,12.0,0.,12.0,1.,12.0
1979-07-24 00:49:00.210 ,1,1,1.,12.0,0.,12.0,0.,12.0,0.,12.0
1979-07-24 00:49:12.210 ,1,0,0.,12.0,0.,12.0,0.,12.0,0.,12.0
1979-07-24 00:49:24.210 ,1,0,1.,12.0,0.,12.0,0.,12.0,0.,12.0
1979-07-24 00:49:36.210 ,2,1,0.,12.0,0.,12.0,0.,12.0,0.,12.0
1979-07-24 00:49:48.210 ,2,1,0.,12.0,0.,12.0,0.,12.0,0.,12.0
1979-07-24 00:50:00.210 ,2,0,0.,12.0,0.,12.0,0.,12.0,0.,12.0
1979-07-24 00:50:12.210 ,2,0,0.,12.0,0.,12.0,0.,12.0,0.,12.0
1979-07-24 00:50:24.210 ,3,1,0.,12.0,0.,12.0,0.,12.0,0.,12.0
1979-07-24 00:50:36.210 ,3,1,0.,12.0,0.,12.0,0.,12.0,0.,12.0
1979-07-24 00:50:48.210 ,3,0,0.,12.0,0.,12.0,0.,12.0,0.,12.0
1979-07-24 00:51:00.210 ,3,0,0.,12.0,0.,12.0,0.,12.0,0.,12.0
1979-07-24 00:51:12.210 ,4,1,0.,12.0,0.,12.0,0.,12.0,0.,12.0
1979-07-24 00:51:24.210 ,4,1,0.,12.0,0.,12.0,0.,12.0,0.,12.0
1979-07-24 00:51:36.210 ,4,0,0.,12.0,0.,12.0,0.,12.0,0.,12.0
1979-07-24 00:51:48.210 ,4,0,0.,12.0,0.,12.0,0.,12.0,0.,12.0
1979-07-24 00:52:00.210 ,5,1,0.,12.0,0.,12.0,0.,12.0,0.,12.0
1979-07-24 00:52:12.210 ,5,1,0.,12.0,0.,12.0,0.,12.0,0.,12.0
1979-07-24 00:52:24.210 ,5,0,0.,12.0,0.,12.0,0.,12.0,0.,12.0
1979-07-24 00:52:36.210 ,5,0,0.,12.0,0.,12.0,0.,12.0,0.,12.0
1979-07-24 00:52:48.210 ,6,1,0.,12.0,0.,12.0,0.,12.0,0.,12.0
1979-07-24 00:53:00.210 ,6,1,0.,12.0,0.,12.0,0.,12.0,0.,12.0
1979-07-24 00:53:12.210 ,6,0,0.,12.0,0.,12.0,0.,12.0,0.,12.0
1979-07-24 00:53:24.210 ,6,0,0.,12.0,0.,12.0,0.,12.0,0.,12.0
1979-07-24 00:53:36.210 ,7,1,0.,12.0,0.,12.0,0.,12.0,0.,12.0
1979-07-24 00:53:48.210 ,7,1,0.,12.0,0.,12.0,0.,12.0,0.,12.0
1979-07-24 00:54:00.210 ,7,0,0.,12.0,0.,12.0,0.,12.0,0.,12.0
1979-07-24 00:54:12.210 ,7,0,0.,12.0,0.,12.0,0.,12.0,0.,12.0
1979-07-24 00:54:24.210 ,7,1,0.,12.0,0.,12.0,0.,12.0,0.,12.0
1979-07-24 00:54:36.210 ,7,1,0.,12.0,0.,12.0,0.,12.0,0.,12.0
1979-07-24 00:54:48.210 ,7,0,0.,12.0,0.,12.0,0.,12.0,0.,12.0
1979-07-24 00:55:00.210 ,7,0,0.,12.0,0.,12.0,0.,12.0,0.,12.0
1979-07-24 00:55:12.210 ,6,1,0.,12.0,0.,12.0,0.,12.0,0.,12.0
1979-07-24 00:55:24.210 ,6,1,1.,12.0,0.,12.0,0.,12.0,0.,12.0
1979-07-24 00:55:36.210 ,6,0,1.,12.0,0.,12.0,0.,12.0,0.,12.0
1979-07-24 00:55:48.210 ,6,0,0.,12.0,0.,12.0,0.,12.0,0.,12.0
1979-07-24 00:56:00.210 ,5,1,2.,12.0,0.,12.0,0.,12.0,0.,12.0
1979-07-24 00:56:12.210 ,5,1,0.,12.0,0.,12.0,0.,12.0,0.,12.0
1979-07-24 00:56:24.210 ,5,0,1.,12.0,0.,12.0,0.,12.0,0.,12.0
1979-07-24 00:56:36.210 ,5,0,1.,12.0,0.,12.0,0.,12.0,0.,12.0
1979-07-24 00:56:48.210 ,4,1,0.,12.0,0.,12.0,0.,12.0,0.,12.0
1979-07-24 00:57:00.210 ,4,1,0.,12.0,0.,12.0,0.,12.0,0.,12.0
1979-07-24 00:57:12.210 ,4,0,0.,12.0,0.,12.0,0.,12.0,0.,12.0
1979-07-24 00:57:24.210 ,4,0,0.,12.0,0.,12.0,0.,12.0,0.,12.0
1979-07-24 00:57:36.210 ,3,1,0.,12.0,0.,12.0,0.,12.0,0.,12.0
1979-07-24 00:57:48.210 ,3,1,0.,12.0,0.,12.0,0.,12.0,0.,12.0
1979-07-24 00:58:00.210 ,3,0,0.,12.0,0.,12.0,0.,12.0,0.,12.0
1979-07-24 00:58:12.210 ,3,0,0.,12.0,0.,12.0,0.,12.0,0.,12.0
1979-07-24 00:58:24.210 ,2,1,0.,12.0,0.,12.0,0.,12.0,0.,12.0
1979-07-24 00:58:36.210 ,2,1,1.,12.0,0.,12.0,0.,12.0,0.,12.0
1979-07-24 00:58:48.210 ,2,0,1.,12.0,0.,12.0,0.,12.0,0.,12.0
1979-07-24 00:59:00.210 ,2,0,0.,12.0,0.,12.0,0.,12.0,0.,12.0
1979-07-24 00:59:12.210 ,1,1,0.,12.0,0.,12.0,0.,12.0,0.,12.0
1979-07-24 00:59:24.210 ,1,1,0.,12.0,0.,12.0,0.,12.0,0.,12.0
1979-07-24 00:59:36.210 ,1,0,0.,12.0,0.,12.0,0.,12.0,0.,12.0
1979-07-24 00:59:48.210 ,1,0,0.,12.0,0.,12.0,0.,12.0,0.,12.0
1979-07-24 01:00:00.210 ,0,1,0.,12.0,0.,12.0,0.,12.0,0.,12.0
1979-07-24 01:00:12.210 ,0,1,0.,12.0,0.,12.0,0.,12.0,0.,12.0
1979-07-24 01:00:24.210 ,0,0,0.,12.0,0.,12.0,0.,12.0,0.,12.0
1979-07-24 01:00:36.210 ,0,0,0.,12.0,0.,12.0,0.,12.0,0.,12.0
1979-07-24 01:00:48.210 ,0,1,0.,12.0,0.,12.0,0.,12.0,0.,12.0
1979-07-24 01:01:00.210 ,0,1,1.,12.0,0.,12.0,0.,12.0,0.,12.0
1979-07-24 01:01:12.210 ,0,0,1.,12.0,0.,12.0,0.,12.0,0.,12.0
1979-07-24 01:01:24.210 ,0,0,0.,12.0,0.,12.0,0.,12.0,0.,12.0
1979-07-24 01:01:36.210 ,1,1,0.,12.0,0.,12.0,0.,12.0,0.,12.0
1979-07-24 01:01:48.210 ,1,1,1.,12.0,0.,12.0,0.,12.0,0.,12.0
1979-07-24 01:02:00.210 ,1,0,0.,12.0,0.,12.0,0.,12.0,0.,12.0
1979-07-24 01:02:12.210 ,1,0,0.,12.0,0.,12.0,0.,12.0,0.,12.0
1979-07-24 01:02:24.210 ,2,1,0.,12.0,0.,12.0,0.,12.0,0.,12.0
1979-07-24 01:02:36.210 ,2,1,0.,12.0,0.,12.0,0.,12.0,0.,12.0
1979-07-24 01:02:48.210 ,2,0,0.,12.0,0.,12.0,0.,12.0,0.,12.0
1979-07-24 01:03:00.210 ,2,0,1.,12.0,0.,12.0,0.,12.0,0.,12.0
1979-07-24 01:03:12.210 ,3,1,3.,12.0,0.,12.0,0.,12.0,0.,12.0
1979-07-24 01:03:24.210 ,3,1,0.,12.0,0.,12.0,0.,12.0,0.,12.0
1979-07-24 01:03:36.210 ,3,0,0.,12.0,0.,12.0,0.,12.0,0.,12.0
1979-07-24 01:03:48.210 ,3,0,0.,12.0,0.,12.0,0.,12.0,0.,12.0
1979-07-24 01:04:00.210 ,4,1,0.,12.0,0.,12.0,0.,12.0,0.,12.0
1979-07-24 01:04:12.210 ,4,1,0.,12.0,0.,12.0,0.,12.0,0.,12.0
1979-07-24 01:04:24.210 ,4,0,0.,12.0,0.,12.0,0.,12.0,0.,12.0
1979-07-24 01:04:36.210 ,4,0,0.,12.0,0.,12.0,0.,12.0,0.,12.0
1979-07-24 01:04:48.210 ,5,1,0.,12.0,0.,12.0,0.,12.0,0.,12.0
1979-07-24 01:05:00.210 ,5,1,1.,12.0,0.,12.0,0.,12.0,0.,12.0
1979-07-24 01:05:12.210 ,5,0,0.,12.0,0.,12.0,0.,12.0,0.,12.0
1979-07-24 01:05:24.210 ,5,0,1.,12.0,0.,12.0,0.,12.0,0.,12.0
1979-07-24 01:05:36.210 ,6,1,0.,12.0,0.,12.0,0.,12.0,0.,12.0
1979-07-24 01:05:48.210 ,6,1,0.,12.0,0.,12.0,0.,12.0,0.,12.0
1979-07-24 01:06:00.210 ,6,0,0.,12.0,0.,12.0,0.,12.0,0.,12.0
1979-07-24 01:06:12.210 ,6,0,0.,12.0,0.,12.0,0.,12.0,0.,12.0
1979-07-24 01:06:24.210 ,7,0,0.,12.0,0.,12.0,0.,12.0,0.,12.0
1979-07-24 01:06:36.210 ,7,0,0.,12.0,0.,12.0,0.,12.0,0.,12.0
1979-07-24 01:06:48.210 ,7,0,0.,12.0,0.,12.0,0.,12.0,0.,12.0
1979-07-24 01:07:00.210 ,7,0,0.,12.0,0.,12.0,0.,12.0,0.,12.0
1979-07-24 01:07:12.210 ,4,1,0.,12.0,0.,12.0,0.,12.0,0.,12.0
1979-07-24 01:07:24.210 ,4,1,0.,12.0,0.,12.0,0.,12.0,0.,12.0
1979-07-24 01:07:36.210 ,0,1,0.,12.0,0.,12.0,0.,12.0,0.,12.0
1979-07-24 01:07:48.210 ,0,1,0.,12.0,0.,12.0,0.,12.0,0.,12.0
1979-07-24 01:08:00.210 ,3,1,0.,12.0,0.,12.0,0.,12.0,0.,12.0
1979-07-24 01:08:12.210 ,3,1,0.,12.0,0.,12.0,0.,12.0,0.,12.0
1979-07-24 01:08:24.210 ,7,1,0.,12.0,0.,12.0,0.,12.0,0.,12.0
1979-07-24 01:08:36.210 ,7,1,0.,12.0,0.,12.0,0.,12.0,0.,12.0
1979-07-24 01:08:48.210 ,4,1,0.,12.0,0.,12.0,0.,12.0,0.,12.0
1979-07-24 01:09:00.210 ,4,1,0.,12.0,0.,12.0,0.,12.0,0.,12.0
1979-07-24 01:09:12.210 ,0,1,0.,12.0,0.,12.0,0.,12.0,0.,12.0
1979-07-24 01:09:24.210 ,0,1,1.,12.0,0.,12.0,0.,12.0,0.,12.0
1979-07-24 01:09:36.210 ,3,1,0.,12.0,0.,12.0,0.,12.0,0.,12.0
1979-07-24 01:09:48.210 ,3,1,0.,12.0,0.,12.0,0.,12.0,0.,12.0
1979-07-24 01:10:00.210 ,7,1,0.,12.0,0.,12.0,0.,12.0,0.,12.0
1979-07-24 01:10:12.210 ,7,1,0.,12.0,0.,12.0,0.,12.0,0.,12.0
1979-07-24 01:10:24.210 ,4,1,0.,12.0,0.,12.0,0.,12.0,0.,12.0
1979-07-24 01:10:36.210 ,4,1,0.,12.0,0.,12.0,0.,12.0,0.,12.0
1979-07-24 01:10:48.210 ,0,1,1.,12.0,0.,12.0,0.,12.0,0.,12.0
1979-07-24 01:11:00.210 ,0,1,1.,12.0,0.,12.0,0.,12.0,0.,12.0
1979-07-24 01:11:12.210 ,3,1,0.,12.0,0.,12.0,0.,12.0,0.,12.0
1979-07-24 01:11:24.210 ,3,1,0.,12.0,0.,12.0,0.,12.0,0.,12.0
1979-07-24 01:11:36.210 ,7,1,0.,12.0,0.,12.0,0.,12.0,0.,12.0
1979-07-24 01:11:48.210 ,7,1,0.,12.0,0.,12.0,0.,12.0,0.,12.0
1979-07-24 01:12:00.210 ,4,1,0.,12.0,0.,12.0,0.,12.0,0.,12.0
1979-07-24 01:12:12.210 ,4,1,1.,12.0,0.,12.0,0.,12.0,0.,12.0
1979-07-24 01:12:24.210 ,0,1,0.,12.0,0.,12.0,0.,12.0,0.,12.0
1979-07-24 01:12:36.210 ,0,1,0.,12.0,0.,12.0,0.,12.0,0.,12.0
1979-07-24 01:12:48.210 ,3,1,0.,12.0,0.,12.0,0.,12.0,0.,12.0
1979-07-24 01:13:00.210 ,3,1,0.,12.0,0.,12.0,0.,12.0,0.,12.0
1979-07-24 01:13:12.210 ,7,1,0.,12.0,0.,12.0,0.,12.0,0.,12.0
1979-07-24 01:13:24.210 ,7,1,2.,12.0,0.,12.0,0.,12.0,0.,12.0
1979-07-24 01:13:36.210 ,4,1,0.,12.0,0.,12.0,0.,12.0,0.,12.0
1979-07-24 01:13:48.210 ,4,1,0.,12.0,0.,12.0,0.,12.0,0.,12.0
1979-07-24 01:14:00.210 ,0,1,1.,12.0,0.,12.0,0.,12.0,0.,12.0
1979-07-24 01:14:12.210 ,0,1,0.,12.0,0.,12.0,0.,12.0,0.,12.0
1979-07-24 01:14:24.210 ,3,1,0.,12.0,0.,12.0,0.,12.0,0.,12.0
1979-07-24 01:14:36.210 ,3,1,0.,12.0,0.,12.0,0.,12.0,0.,12.0
1979-07-24 01:14:48.210 ,7,1,0.,12.0,0.,12.0,0.,12.0,0.,12.0
1979-07-24 01:15:00.210 ,7,1,0.,12.0,0.,12.0,0.,12.0,0.,12.0
1979-07-24 01:15:12.210 ,4,1,0.,12.0,0.,12.0,0.,12.0,0.,12.0
1979-07-24 01:15:24.210 ,4,1,0.,12.0,0.,12.0,0.,12.0,0.,12.0
1979-07-24 01:15:36.210 ,0,1,0.,12.0,0.,12.0,0.,12.0,0.,12.0
1979-07-24 01:15:48.210 ,0,1,1.,12.0,0.,12.0,0.,12.0,0.,12.0
1979-07-24 01:16:00.210 ,3,1,0.,12.0,0.,12.0,0.,12.0,0.,12.0
1979-07-24 01:16:12.210 ,3,1,0.,12.0,0.,12.0,0.,12.0,0.,12.0
1979-07-24 01:16:24.210 ,7,1,0.,12.0,0.,12.0,0.,12.0,0.,12.0
1979-07-24 01:16:36.210 ,7,1,0.,12.0,0.,12.0,0.,12.0,0.,12.0
1979-07-24 01:16:48.210 ,4,1,0.,12.0,0.,12.0,0.,12.0,0.,12.0
1979-07-24 01:17:00.210 ,4,1,0.,12.0,0.,12.0,0.,12.0,0.,12.0
1979-07-24 01:17:12.210 ,0,1,0.,12.0,0.,12.0,0.,12.0,0.,12.0
1979-07-24 01:17:24.210 ,0,1,0.,12.0,0.,12.0,0.,12.0,0.,12.0